SL-8 R/B

Satellite information

Favourite Embed

Satellite Type and Status

ROCKET BODYIN ORBIT

Key statistics

Satellite SL-8 R/B at a glance.

Uptime

17212

Days in orbit

Revolutions

≈ 13.8

Per day

Orbit

LEO

Low Earth Orbit

Inclination

82.9

Latest

Satellite identification and parameters

Extended collection of information and parameters for SL-8 R/B.

Object identification

Identified? True

Debris? False

Object name: SL-8 R/B

International designator: 1978-031B

Object number (NORAD): 10745

Object ID (CCSDS): 10745

Country: COMMONWEALTH OF INDEPENDENT STATES (CIS)

Current information (Y/N): Y

RCS size: LARGE

Orbital parameters

Period: 104.434 minutes

Inclination: 82.9274 deg

SMA: 7346.064 km

Apoapsis: 992.676 km

Periapsis: 943.181 km

RAAN: 356.9466 deg

Eccentricy: 0.0033688

Argument of periapsis: 286.1501 deg

Mean anomaly: 84.4766 deg

Mean motion: 13.78861779 rev/day

Mean motion (dot): 0.00000128 rev/day2

B* drag term: 0.00011091 1/REarth

Two-line elements (TLE)

Creation date: May 12, 2025, 2:31 a.m.

Reference frame: TEME

Reference center: EARTH

Epoch: May 11, 2025, 8:56 p.m. UTC

TLE line 0: 0 SL-8 R/B

TLE line 1: 1 10745U 78031B 25131.87223087 .00000128 00000-0 11091-3 0 9991

TLE line 2: 2 10745 82.9274 356.9466 0033688 286.1501 84.4766 13.78861779369742

Live tracking on map

Real-time ground track for satellite SL-8 R/B.

In-orbit conjunctions

A list of the most updated potential collisions computed for object SL-8 R/B.

Target Orbit TCA Probability of collision Miss distance Type
COSMOS 970 DEB LEO 2025-03-30 14:08:55 0.0003819137 208.0 (m) DEBRIS
NOAA 16 DEB SSO 2024-11-13 15:34:33 0.000193295 246.0 (m) DEBRIS

Associated space launch

Navigation satellite providing location information for the Tsiklon-B navigation system

SL-8 R/B was lifted into orbit during the mission ‘Kosmos-3M | Parus 14’, on board a Kosmos-3M space rocket.

The launch took place on March 28, 1978, 1:30 a.m. from 132/1 (132L).

For more information about the launch, click the button.

Launch to space Kosmos-3M | Parus 14
Kosmos-3M | Parus 14

Agency: N/A

Status: Launch Successful

Launch date: March 28, 1978, 1:30 a.m. UTC

Rocket: Kosmos-3M

Launch pad: 132/1 (132L)

Location: Plesetsk Cosmodrome, Russian Federation

...

Latest news about this satellite

There are no fresh news available about this satellite. Check back as we update our databases every day.


Newsletter sign-up

Weekly statistics, charts and insights to help you stay on top of the space industry.